QPF
0.00 0.00 0.00 0.00 0.00 0.00 0.00 0.00 0.00 0.00 0.00 0.00 0.00 0.00 0.00 0.00 0.00 0.00 0.00 0.00 0.00 0.00 0.00 0.00 0.00 0.00 0.00 0.00 0.00 0.00 0.00 0.00 0.00 0.00 0.00 0.00 0.00 0.00 0.00 0.00 0.00 0.00 0.00 0.00
0.00 0.00 0.00 0.00 0.00 0.00 0.00 0.00 0.00 0.00 0.00 0.00 0.00 0.00 0.00 0.00 0.00 0.00 0.00 0.00 0.00 0.00 0.00 0.00 0.00 0.00 0.00 0.00 0.00 0.00 0.00 0.00 0.00 0.00 0.00 0.00 0.00 0.00 0.00 0.00 0.00 0.00 0.00 0.00
0.00 0.00 0.00 0.00 0.00 0.00 0.00 0.00 0.00 0.00 0.00 0.00 0.00 0.00 0.00 0.00 0.00 0.00 0.00 0.00 0.00 0.00 0.00 0.00 0.00 0.00 0.00 0.00 0.00 0.00 0.00 0.00 0.00 0.00 0.00 0.00 0.00 0.00 0.00 0.00 0.00 0.00 0.00 0.00
0.00 0.00 0.00 0.00 0.00 0.00 0.00 0.00 0.00 0.00 0.00 0.00 0.00 0.00 0.00 0.00 0.00 0.00 0.00 0.00 0.00 0.00 0.00 0.00 0.00 0.00 0.00 0.00 0.00 0.00 0.00 0.00 0.00 0.00 0.00 0.00 0.00 0.00 0.00 0.00 0.00 0.00 0.00 0.00
0.00 0.00 0.00 0.00 0.00 0.00 0.00 0.00 0.00 0.00 0.00 0.00 0.00 0.00 0.00 0.00 0.00 0.00 0.00 0.00 0.00 0.00 0.00 0.00 0.00 0.00 0.00 0.00 0.00 0.00 0.00 0.00 0.00 0.00 0.00 0.00 0.00 0.00 0.00 0.00 0.00 0.00 0.00 0.00
0.00 0.00 0.00 0.00 0.00 0.00 0.00 0.00 0.00 0.00 0.00 0.00 0.00 0.00 0.00 0.00 0.00 0.00 0.00 0.00 0.00 0.00 0.00 0.00 0.00 0.00 0.00 0.00 0.00 0.00 0.00 0.00 0.00 0.00 0.00 0.00 0.00 0.00 0.00 0.00 0.00 0.00 0.00 0.00
0.00 0.00 0.00 0.00 0.00 0.00 0.00 0.00 0.00 0.00 0.00 0.00 0.00 0.00 0.00 0.00 0.00 0.00 0.00 0.00 0.00 0.00 0.00 0.00 0.00 0.00 0.00 0.00 0.00 0.00 0.00 0.00 0.00 0.00 0.00 0.00 0.00 0.00 0.00 0.00 0.00 0.00 0.00 0.00
0.00 0.00 0.00 0.00 0.00 0.00 0.00 0.00 0.00 0.00 0.00 0.00 0.00 0.00 0.00 0.00 0.00 0.00 0.00 0.00 0.00 0.00 0.00 0.00 0.00 0.00 0.00 0.00 0.00 0.00 0.00 0.00 0.00 0.00 0.00 0.00 0.00 0.00 0.00 0.00 0.00 0.00 0.00 0.00
0.00 0.00 0.00 0.00 0.00 0.00 0.00 0.00 0.00 0.00 0.00 0.00 0.00 0.00 0.00 0.00 0.00 0.00 0.00 0.00 0.00 0.00 0.00 0.00 0.00 0.00 0.00 0.00 0.00 0.00 0.00 0.00 0.00 0.00 0.00 0.00 0.00 0.00 0.00 0.00 0.00 0.00 0.00 0.00
0.00 0.00 0.00 0.00 0.00 0.00 0.00 0.00 0.00 0.00 0.00 0.00 0.00 0.00 0.00 0.00 0.00 0.00 0.00 0.00 0.00 0.00 0.00 0.00 0.00 0.00 0.00 0.00 0.00 0.00 0.00 0.00 0.00 0.00 0.00 0.00 0.00 0.00 0.00 0.00 0.00 0.00 0.00 0.00
0.00 0.00 0.00 0.00 0.00 0.00 0.00 0.00 0.00 0.00 0.00 0.00 0.00 0.00 0.00 0.00 0.00 0.00 0.00 0.00 0.00 0.00 0.00 0.00 0.00 0.00 0.00 0.00 0.00 0.00 0.00 0.00 0.00 0.00 0.00 0.00 0.00 0.00 0.00 0.00 0.00 0.00 0.00 0.00
0.00 0.00 0.00 0.00 0.00 0.00 0.00 0.00 0.00 0.00 0.00 0.00 0.00 0.00 0.00 0.00 0.00 0.00 0.00 0.00 0.00 0.00 0.00 0.00 0.00 0.00 0.00 0.00 0.00 0.00 0.00 0.00 0.00 0.00 0.00 0.00 0.00 0.00 0.00 0.00 0.00 0.00 0.00 0.00
0.00 0.00 0.00 0.00 0.00 0.00 0.00 0.00 0.00 0.00 0.00 0.00 0.00 0.00 0.00 0.00 0.00 0.00 0.00 0.00 0.00 0.00 0.00 0.00 0.00 0.00 0.00 0.00 0.00 0.00 0.00 0.00 0.00 0.00 0.00 0.00 0.00 0.00 0.00 0.00 0.00 0.00 0.00 0.00
0.00 0.00 0.00 0.00 0.00 0.00 0.00 0.00 0.00 0.00 0.00 0.00 0.00 0.00 0.00 0.00 0.00 0.00 0.00 0.00 0.00 0.00 0.00 0.00 0.00 0.00 0.00 0.00 0.00 0.00 0.00 0.00 0.00 0.00 0.00 0.00 0.00 0.00 0.00 0.00 0.00 0.00 0.00 0.00
0.00 0.00 0.00 0.00 0.00 0.00 0.00 0.00 0.00 0.00 0.00 0.00 0.00 0.00 0.00 0.00 0.00 0.00 0.00 0.00 0.00 0.00 0.00 0.00 0.00 0.00 0.00 0.00 0.00 0.00 0.00 0.00 0.00 0.00 0.00 0.00 0.00 0.00 0.00 0.00 0.00 0.00 0.00 0.00
0.00 0.00 0.00 0.00 0.00 0.00 0.00 0.00 0.00 0.00 0.00 0.00 0.00 0.00 0.00 0.00 0.00 0.00 0.00 0.00 0.00 0.00 0.00 0.00 0.00 0.00 0.00 0.00 0.00 0.00 0.00 0.00 0.00 0.00 0.00 0.00 0.00 0.00 0.00 0.00 0.00 0.00 0.00 0.00
0.00 0.00 0.00 0.00 0.00 0.00 0.00 0.00 0.00 0.00 0.00 0.00 0.00 0.00 0.00 0.00 0.00 0.00 0.00 0.00 0.00 0.00 0.00 0.00 0.00 0.00 0.00 0.00 0.00 0.00 0.00 0.00 0.00 0.00 0.00 0.00 0.00 0.00 0.00 0.00 0.00 0.00 0.00 0.00
0.00 0.00 0.00 0.00 0.00 0.00 0.00 0.00 0.00 0.00 0.00 0.00 0.00 0.00 0.00 0.00 0.00 0.00 0.00 0.00 0.00 0.00 0.00 0.00 0.00 0.00 0.00 0.00 0.00 0.00 0.00 0.00 0.00 0.00 0.00 0.00 0.00 0.00 0.00 0.00 0.00 0.00 0.00 0.00
0.00 0.00 0.00 0.00 0.00 0.00 0.00 0.00 0.00 0.00 0.00 0.00 0.00 0.00 0.00 0.00 0.00 0.00 0.00 0.00 0.00 0.00 0.00 0.00 0.00 0.00 0.00 0.00 0.00 0.00 0.00 0.00 0.00 0.00 0.00 0.00 0.00 0.00 0.00 0.00 0.00 0.00 0.00 0.00
0.00 0.00 0.00 0.00 0.00 0.00 0.00 0.00 0.00 0.00 0.00 0.00 0.00 0.00 0.00 0.00 0.00 0.00 0.00 0.00 0.00 0.00 0.00 0.00 0.00 0.00 0.00 0.00 0.00 0.00 0.00 0.00 0.00 0.00 0.00 0.00 0.00 0.00 0.00 0.00 0.00 0.00 0.00 0.00
0.00 0.00 0.00 0.00 0.00 0.00 0.00 0.00 0.00 0.00 0.00 0.00 0.00 0.00 0.00 0.00 0.00 0.00 0.00 0.00 0.00 0.00 0.00 0.00 0.00 0.00 0.00 0.00 0.00 0.00 0.00 0.00 0.00 0.00 0.00 0.00 0.00 0.00 0.00 0.00 0.00 0.00 0.00 0.00
0.00 0.00 0.00 0.00 0.00 0.00 0.00 0.00 0.00 0.00 0.00 0.00 0.00 0.00 0.00 0.00 0.00 0.00 0.00 0.00 0.00 0.00 0.00 0.00 0.00 0.00 0.00 0.00 0.00 0.00 0.00 0.00 0.00 0.00 0.00 0.00 0.00 0.00 0.00 0.00 0.00 0.00 0.00 0.00
0.00 0.00 0.00 0.00 0.00 0.00 0.00 0.00 0.00 0.00 0.00 0.00 0.00 0.00 0.00 0.00 0.00 0.00 0.00 0.00 0.00 0.00 0.00 0.00 0.00 0.00 0.00 0.00 0.00 0.00 0.00 0.00 0.00 0.00 0.00 0.00 0.00 0.00 0.00 0.00 0.00 0.00 0.00 0.00
0.00 0.00 0.00 0.00 0.00 0.00 0.00 0.00 0.00 0.00 0.00 0.00 0.00 0.00 0.00 0.00 0.00 0.00 0.00 0.00 0.00 0.00 0.00 0.00 0.00 0.00 0.00 0.00 0.00 0.00 0.00 0.00 0.00 0.00 0.00 0.00 0.00 0.00 0.00 0.00 0.00 0.00 0.00 0.00
0.00 0.00 0.00 0.00 0.00 0.00 0.00 0.00 0.00 0.00 0.00 0.00 0.00 0.00 0.00 0.00 0.00 0.00 0.00 0.00 0.00 0.00 0.00 0.00 0.00 0.00 0.00 0.00 0.00 0.00 0.00 0.00 0.00 0.00 0.00 0.00 0.00 0.00 0.00 0.00 0.00 0.00 0.00 0.00
0.00 0.00 0.00 0.00 0.00 0.00 0.00 0.00 0.00 0.00 0.00 0.00 0.00 0.00 0.00 0.00 0.00 0.00 0.00 0.00 0.00 0.00 0.00 0.00 0.00 0.00 0.00 0.00 0.00 0.00 0.00 0.00 0.00 0.00 0.00 0.00 0.00 0.00 0.00 0.00 0.00 0.00 0.00 0.00
MSLP
1017.97 1018.44 1018.81 1019.06 1019.20 1019.26 1019.25 1019.21 1019.16 1019.10 1019.04 1018.98 1018.92 1018.87 1018.80 1018.75 1018.69 1018.64 1018.59 1018.54 1018.49 1018.44 1018.38 1018.32 1018.28 1018.28 1018.31 1018.40 1018.55 1018.74 1018.97 1019.21 1019.45 1019.66 1019.84 1019.99 1020.10 1020.19 1020.28 1020.36 1020.46 1020.56 1020.68 1020.78
1018.02 1018.44 1018.76 1018.99 1019.14 1019.21 1019.25 1019.25 1019.23 1019.20 1019.16 1019.10 1019.03 1018.96 1018.88 1018.82 1018.78 1018.76 1018.76 1018.78 1018.80 1018.81 1018.81 1018.79 1018.77 1018.76 1018.77 1018.82 1018.91 1019.05 1019.22 1019.40 1019.59 1019.75 1019.89 1019.98 1020.05 1020.09 1020.13 1020.16 1020.21 1020.27 1020.34 1020.41
1017.98 1018.33 1018.61 1018.83 1018.99 1019.10 1019.18 1019.22 1019.24 1019.23 1019.19 1019.12 1019.02 1018.92 1018.82 1018.75 1018.72 1018.74 1018.80 1018.88 1018.98 1019.07 1019.13 1019.17 1019.18 1019.17 1019.17 1019.19 1019.24 1019.34 1019.46 1019.60 1019.75 1019.88 1019.97 1020.04 1020.06 1020.06 1020.05 1020.03 1020.02 1020.03 1020.05 1020.08
1017.88 1018.17 1018.41 1018.62 1018.79 1018.94 1019.06 1019.15 1019.20 1019.20 1019.14 1019.03 1018.89 1018.74 1018.61 1018.52 1018.50 1018.54 1018.66 1018.82 1019.00 1019.18 1019.32 1019.42 1019.47 1019.49 1019.49 1019.49 1019.52 1019.58 1019.67 1019.79 1019.91 1020.01 1020.09 1020.13 1020.13 1020.09 1020.03 1019.97 1019.91 1019.86 1019.82 1019.79
1017.77 1018.00 1018.21 1018.41 1018.60 1018.78 1018.94 1019.06 1019.12 1019.10 1019.01 1018.85 1018.65 1018.44 1018.25 1018.14 1018.12 1018.19 1018.36 1018.60 1018.87 1019.14 1019.37 1019.54 1019.64 1019.69 1019.70 1019.70 1019.72 1019.76 1019.83 1019.93 1020.04 1020.14 1020.21 1020.24 1020.22 1020.16 1020.07 1019.97 1019.86 1019.75 1019.66 1019.57
1017.64 1017.82 1018.01 1018.22 1018.43 1018.64 1018.83 1018.96 1019.01 1018.97 1018.83 1018.60 1018.32 1018.04 1017.80 1017.65 1017.62 1017.72 1017.95 1018.26 1018.62 1018.98 1019.30 1019.54 1019.70 1019.79 1019.82 1019.83 1019.84 1019.87 1019.94 1020.03 1020.14 1020.24 1020.32 1020.35 1020.32 1020.25 1020.14 1020.00 1019.85 1019.70 1019.55 1019.40
1017.48 1017.64 1017.83 1018.04 1018.28 1018.51 1018.72 1018.86 1018.89 1018.81 1018.61 1018.31 1017.96 1017.60 1017.30 1017.11 1017.08 1017.20 1017.47 1017.85 1018.29 1018.74 1019.14 1019.45 1019.67 1019.80 1019.85 1019.87 1019.88 1019.92 1019.98 1020.08 1020.19 1020.30 1020.39 1020.42 1020.41 1020.33 1020.21 1020.04 1019.86 1019.67 1019.47 1019.27
1017.25 1017.41 1017.61 1017.85 1018.11 1018.38 1018.60 1018.74 1018.75 1018.63 1018.37 1018.01 1017.58 1017.16 1016.81 1016.59 1016.54 1016.68 1016.99 1017.42 1017.93 1018.45 1018.92 1019.30 1019.57 1019.74 1019.83 1019.86 1019.88 1019.92 1019.98 1020.08 1020.20 1020.32 1020.41 1020.46 1020.45 1020.37 1020.24 1020.06 1019.85 1019.62 1019.39 1019.14
1016.93 1017.10 1017.32 1017.60 1017.90 1018.19 1018.44 1018.58 1018.58 1018.43 1018.12 1017.71 1017.23 1016.76 1016.37 1016.12 1016.07 1016.22 1016.55 1017.03 1017.59 1018.16 1018.69 1019.12 1019.44 1019.65 1019.76 1019.82 1019.85 1019.89 1019.96 1020.06 1020.19 1020.31 1020.41 1020.46 1020.44 1020.36 1020.21 1020.02 1019.78 1019.53 1019.26 1018.97
1016.50 1016.70 1016.96 1017.28 1017.62 1017.94 1018.20 1018.35 1018.35 1018.18 1017.86 1017.41 1016.90 1016.40 1016.00 1015.74 1015.68 1015.84 1016.19 1016.69 1017.29 1017.90 1018.47 1018.95 1019.31 1019.55 1019.70 1019.77 1019.82 1019.87 1019.95 1020.05 1020.17 1020.29 1020.38 1020.42 1020.39 1020.29 1020.12 1019.90 1019.63 1019.34 1019.04 1018.73
1015.99 1016.23 1016.53 1016.89 1017.26 1017.61 1017.89 1018.05 1018.05 1017.88 1017.55 1017.10 1016.59 1016.09 1015.69 1015.44 1015.39 1015.56 1015.92 1016.44 1017.05 1017.69 1018.28 1018.80 1019.19 1019.47 1019.64 1019.75 1019.82 1019.88 1019.96 1020.06 1020.17 1020.27 1020.34 1020.36 1020.30 1020.16 1019.96 1019.69 1019.38 1019.05 1018.72 1018.37
1015.48 1015.76 1016.09 1016.48 1016.87 1017.23 1017.52 1017.68 1017.67 1017.50 1017.19 1016.75 1016.27 1015.80 1015.42 1015.20 1015.17 1015.35 1015.73 1016.26 1016.88 1017.53 1018.15 1018.68 1019.11 1019.42 1019.63 1019.77 1019.86 1019.94 1020.02 1020.11 1020.20 1020.28 1020.31 1020.28 1020.18 1019.99 1019.73 1019.41 1019.05 1018.67 1018.29 1017.91
1015.08 1015.37 1015.72 1016.11 1016.49 1016.84 1017.10 1017.24 1017.23 1017.06 1016.76 1016.35 1015.91 1015.49 1015.16 1014.98 1015.00 1015.21 1015.60 1016.14 1016.77 1017.44 1018.07 1018.63 1019.08 1019.42 1019.67 1019.83 1019.95 1020.04 1020.12 1020.20 1020.26 1020.30 1020.28 1020.20 1020.04 1019.79 1019.46 1019.07 1018.65 1018.21 1017.78 1017.36
1014.85 1015.14 1015.48 1015.84 1016.18 1016.48 1016.68 1016.78 1016.73 1016.55 1016.26 1015.89 1015.50 1015.14 1014.88 1014.77 1014.84 1015.10 1015.53 1016.09 1016.74 1017.41 1018.06 1018.63 1019.11 1019.48 1019.75 1019.94 1020.07 1020.16 1020.23 1020.29 1020.32 1020.31 1020.24 1020.10 1019.87 1019.56 1019.16 1018.70 1018.21 1017.72 1017.23 1016.78
1014.82 1015.10 1015.40 1015.69 1015.95 1016.16 1016.28 1016.29 1016.19 1015.98 1015.69 1015.36 1015.03 1014.76 1014.59 1014.56 1014.71 1015.04 1015.51 1016.10 1016.77 1017.46 1018.11 1018.70 1019.19 1019.57 1019.86 1020.06 1020.19 1020.28 1020.34 1020.36 1020.35 1020.29 1020.17 1019.97 1019.68 1019.30 1018.84 1018.33 1017.78 1017.23 1016.70 1016.20
1014.98 1015.22 1015.45 1015.65 1015.80 1015.88 1015.88 1015.79 1015.62 1015.37 1015.08 1014.79 1014.53 1014.35 1014.28 1014.37 1014.62 1015.02 1015.56 1016.19 1016.88 1017.58 1018.25 1018.83 1019.32 1019.71 1019.99 1020.18 1020.30 1020.37 1020.39 1020.37 1020.32 1020.21 1020.04 1019.78 1019.45 1019.03 1018.52 1017.97 1017.38 1016.79 1016.21 1015.66
1015.21 1015.40 1015.55 1015.64 1015.66 1015.60 1015.48 1015.28 1015.02 1014.74 1014.46 1014.21 1014.03 1013.96 1014.02 1014.23 1014.58 1015.08 1015.69 1016.37 1017.09 1017.80 1018.45 1019.02 1019.49 1019.85 1020.11 1020.27 1020.36 1020.38 1020.36 1020.29 1020.19 1020.03 1019.81 1019.53 1019.16 1018.72 1018.20 1017.62 1017.02 1016.40 1015.79 1015.20
1015.38 1015.52 1015.58 1015.56 1015.46 1015.28 1015.03 1014.73 1014.42 1014.12 1013.86 1013.68 1013.60 1013.65 1013.84 1014.18 1014.65 1015.24 1015.92 1016.65 1017.38 1018.08 1018.71 1019.25 1019.68 1019.99 1020.19 1020.30 1020.33 1020.30 1020.22 1020.10 1019.94 1019.75 1019.49 1019.19 1018.81 1018.36 1017.85 1017.28 1016.68 1016.05 1015.43 1014.82
1015.34 1015.44 1015.43 1015.33 1015.13 1014.85 1014.52 1014.17 1013.84 1013.55 1013.35 1013.25 1013.29 1013.47 1013.80 1014.27 1014.86 1015.53 1016.27 1017.02 1017.75 1018.42 1019.00 1019.48 1019.84 1020.08 1020.21 1020.25 1020.21 1020.12 1019.97 1019.80 1019.59 1019.36 1019.08 1018.76 1018.39 1017.96 1017.47 1016.93 1016.35 1015.73 1015.10 1014.47
1015.02 1015.08 1015.04 1014.88 1014.63 1014.32 1013.97 1013.62 1013.31 1013.09 1012.97 1012.99 1013.16 1013.48 1013.94 1014.52 1015.20 1015.94 1016.71 1017.45 1018.15 1018.77 1019.28 1019.68 1019.95 1020.10 1020.15 1020.11 1020.00 1019.83 1019.63 1019.40 1019.16 1018.89 1018.60 1018.28 1017.92 1017.51 1017.05 1016.54 1015.98 1015.39 1014.76 1014.12
1014.41 1014.46 1014.40 1014.24 1014.00 1013.70 1013.39 1013.11 1012.89 1012.77 1012.78 1012.94 1013.24 1013.69 1014.27 1014.94 1015.68 1016.45 1017.20 1017.91 1018.55 1019.08 1019.50 1019.79 1019.96 1020.02 1019.98 1019.86 1019.68 1019.46 1019.21 1018.94 1018.67 1018.38 1018.08 1017.75 1017.40 1017.00 1016.57 1016.08 1015.55 1014.98 1014.36 1013.72
1013.57 1013.63 1013.59 1013.47 1013.29 1013.08 1012.87 1012.71 1012.62 1012.65 1012.80 1013.10 1013.54 1014.10 1014.76 1015.49 1016.24 1016.99 1017.70 1018.33 1018.87 1019.30 1019.60 1019.78 1019.85 1019.82 1019.70 1019.52 1019.29 1019.03 1018.75 1018.46 1018.16 1017.86 1017.54 1017.21 1016.85 1016.46 1016.03 1015.56 1015.04 1014.48 1013.87 1013.23
1012.65 1012.72 1012.73 1012.69 1012.61 1012.53 1012.47 1012.46 1012.54 1012.72 1013.03 1013.46 1014.00 1014.64 1015.35 1016.08 1016.82 1017.51 1018.13 1018.66 1019.07 1019.37 1019.56 1019.62 1019.60 1019.49 1019.31 1019.09 1018.83 1018.56 1018.27 1017.97 1017.66 1017.35 1017.02 1016.68 1016.31 1015.90 1015.46 1014.98 1014.45 1013.88 1013.27 1012.63
1011.80 1011.89 1011.96 1012.02 1012.07 1012.13 1012.24 1012.40 1012.64 1012.98 1013.42 1013.96 1014.57 1015.25 1015.96 1016.66 1017.32 1017.92 1018.42 1018.82 1019.11 1019.28 1019.34 1019.31 1019.20 1019.03 1018.82 1018.58 1018.33 1018.06 1017.78 1017.49 1017.20 1016.88 1016.54 1016.18 1015.78 1015.35 1014.87 1014.36 1013.81 1013.22 1012.60 1011.94
1011.14 1011.26 1011.39 1011.54 1011.72 1011.93 1012.19 1012.51 1012.90 1013.37 1013.91 1014.51 1015.16 1015.83 1016.49 1017.12 1017.69 1018.17 1018.54 1018.81 1018.96 1019.01 1018.96 1018.85 1018.68 1018.48 1018.25 1018.02 1017.78 1017.54 1017.29 1017.03 1016.75 1016.44 1016.10 1015.71 1015.28 1014.81 1014.29 1013.73 1013.14 1012.52 1011.87 1011.21
1010.75 1010.88 1011.07 1011.31 1011.60 1011.93 1012.32 1012.76 1013.26 1013.80 1014.40 1015.02 1015.66 1016.28 1016.88 1017.41 1017.86 1018.22 1018.46 1018.60 1018.64 1018.58 1018.46 1018.28 1018.07 1017.85 1017.63 1017.41 1017.20 1017.00 1016.79 1016.56 1016.31 1016.01 1015.67 1015.27 1014.81 1014.30 1013.74 1013.13 1012.50 1011.84 1011.16 1010.48
Thickness
5672 5673 5672 5677 5676 5675 5673 5671 5672 5676 5675 5670 5675 5677 5679 5676 5677 5677 5676 5674 5672 5669 5668 5668 5669 5669 5667 5664 5661 5658 5655 5651 5646 5642 5638 5634 5631 5628 5625 5622 5620 5617 5614 5611
5664 5667 5674 5671 5666 5663 5664 5664 5669 5672 5666 5666 5669 5671 5672 5671 5671 5671 5669 5668 5666 5665 5662 5661 5661 5660 5659 5655 5653 5650 5647 5643 5639 5635 5631 5628 5624 5622 5620 5617 5614 5612 5609 5606
5661 5667 5663 5660 5658 5657 5660 5662 5667 5665 5664 5659 5660 5667 5665 5665 5664 5660 5661 5660 5660 5659 5657 5655 5653 5651 5648 5645 5643 5640 5636 5633 5630 5626 5623 5619 5617 5615 5614 5612 5609 5606 5604 5601
5658 5661 5654 5655 5658 5658 5658 5664 5659 5655 5657 5666 5659 5667 5665 5663 5660 5657 5656 5656 5654 5651 5650 5647 5645 5641 5638 5635 5632 5630 5627 5624 5621 5618 5616 5614 5611 5611 5609 5606 5603 5601 5598 5595
5655 5652 5650 5652 5659 5656 5659 5654 5652 5651 5653 5656 5656 5659 5672 5662 5657 5657 5655 5652 5649 5645 5643 5639 5635 5632 5629 5626 5623 5621 5618 5615 5612 5610 5607 5606 5605 5603 5601 5598 5596 5595 5592 5589
5653 5652 5654 5656 5653 5651 5647 5647 5642 5643 5648 5651 5658 5656 5669 5664 5665 5661 5655 5649 5644 5639 5635 5631 5627 5625 5621 5618 5615 5613 5611 5607 5604 5601 5599 5597 5596 5594 5593 5591 5590 5587 5585 5582
5642 5647 5650 5651 5646 5642 5645 5648 5647 5648 5649 5657 5647 5648 5668 5671 5668 5665 5656 5648 5641 5635 5631 5626 5621 5618 5614 5610 5607 5604 5603 5599 5596 5594 5591 5589 5586 5585 5583 5582 5580 5578 5577 5574
5639 5644 5646 5647 5651 5648 5646 5648 5647 5645 5651 5654 5641 5649 5668 5660 5655 5654 5653 5646 5636 5630 5625 5619 5614 5610 5606 5602 5599 5597 5594 5591 5588 5585 5583 5581 5578 5575 5574 5571 5569 5567 5565 5563
5641 5641 5638 5640 5643 5647 5640 5644 5645 5644 5635 5639 5654 5657 5661 5650 5646 5642 5641 5637 5630 5624 5617 5612 5607 5602 5598 5594 5591 5588 5585 5583 5579 5576 5574 5572 5569 5566 5563 5560 5558 5556 5553 5550
5645 5637 5633 5631 5634 5631 5639 5641 5635 5635 5631 5636 5647 5650 5659 5650 5645 5638 5634 5631 5625 5618 5611 5605 5600 5594 5590 5586 5582 5579 5576 5573 5569 5567 5564 5560 5558 5555 5552 5550 5547 5544 5541 5537
5640 5637 5625 5627 5630 5634 5627 5628 5633 5634 5631 5631 5636 5652 5656 5653 5646 5638 5633 5628 5621 5612 5605 5598 5592 5586 5581 5577 5574 5570 5567 5563 5560 5557 5554 5551 5548 5544 5541 5538 5535 5532 5528 5524
5633 5636 5631 5628 5625 5627 5632 5635 5632 5628 5626 5623 5627 5643 5645 5642 5638 5633 5627 5619 5612 5604 5597 5590 5583 5578 5574 5569 5565 5561 5557 5553 5549 5546 5543 5540 5537 5533 5530 5527 5523 5519 5514 5510
5627 5629 5624 5620 5617 5616 5620 5621 5623 5625 5623 5620 5620 5638 5631 5628 5626 5621 5616 5609 5601 5593 5586 5580 5575 5570 5565 5560 5555 5551 5547 5542 5538 5534 5531 5528 5525 5522 5518 5514 5510 5505 5500 5495
5626 5628 5631 5630 5632 5627 5619 5616 5613 5616 5618 5620 5624 5636 5629 5621 5617 5612 5606 5600 5593 5584 5577 5571 5566 5561 5555 5549 5545 5541 5536 5531 5527 5523 5519 5516 5513 5508 5504 5500 5495 5490 5485 5480
5619 5622 5624 5623 5618 5618 5621 5619 5610 5613 5623 5621 5632 5631 5632 5624 5616 5609 5600 5590 5582 5575 5567 5561 5555 5550 5545 5539 5534 5530 5525 5520 5515 5512 5508 5504 5499 5494 5490 5485 5480 5475 5470 5464
5611 5612 5610 5608 5603 5603 5604 5613 5613 5612 5616 5618 5621 5623 5625 5614 5606 5599 5590 5580 5572 5565 5557 5550 5544 5538 5534 5529 5524 5519 5514 5509 5504 5500 5496 5492 5486 5481 5476 5471 5466 5461 5455 5449
5603 5603 5601 5605 5593 5593 5604 5620 5616 5613 5615 5613 5612 5618 5607 5597 5591 5587 5579 5571 5563 5555 5546 5540 5534 5528 5523 5518 5512 5508 5503 5498 5493 5489 5484 5479 5473 5468 5462 5457 5452 5446 5441 5435
5597 5597 5597 5593 5585 5583 5622 5614 5612 5610 5611 5607 5604 5598 5592 5587 5578 5571 5566 5560 5551 5542 5535 5529 5523 5516 5511 5505 5500 5495 5491 5486 5482 5477 5473 5467 5460 5454 5448 5443 5438 5432 5426 5419
5589 5591 5587 5580 5584 5597 5609 5603 5599 5596 5602 5601 5594 5586 5577 5568 5564 5557 5549 5544 5538 5531 5523 5517 5510 5504 5499 5494 5489 5484 5480 5476 5471 5466 5461 5454 5447 5441 5435 5429 5424 5417 5410 5403
5569 5579 5580 5571 5570 5579 5604 5594 5589 5588 5591 5590 5583 5575 5565 5558 5559 5555 5537 5529 5523 5516 5510 5503 5498 5493 5488 5484 5478 5473 5470 5465 5461 5455 5448 5441 5433 5427 5421 5414 5408 5401 5393 5387
5563 5565 5570 5571 5569 5587 5591 5579 5576 5576 5589 5576 5571 5565 5556 5552 5550 5537 5524 5516 5509 5503 5497 5491 5486 5482 5478 5472 5467 5462 5458 5454 5448 5441 5435 5427 5420 5413 5406 5399 5392 5384 5378 5372
5570 5567 5566 5567 5563 5574 5574 5568 5572 5577 5566 5562 5557 5551 5543 5536 5524 5517 5510 5503 5496 5490 5485 5480 5476 5472 5467 5461 5456 5452 5448 5443 5436 5429 5422 5415 5408 5399 5391 5384 5378 5370 5363 5359
5568 5575 5575 5573 5576 5569 5565 5565 5560 5557 5553 5548 5542 5535 5527 5518 5511 5503 5497 5491 5485 5479 5474 5469 5464 5460 5456 5451 5445 5440 5436 5429 5423 5416 5410 5403 5395 5386 5377 5369 5363 5357 5351 5346
5558 5555 5558 5558 5561 5556 5550 5548 5543 5541 5539 5532 5526 5519 5512 5505 5498 5490 5484 5479 5473 5468 5463 5458 5453 5449 5446 5441 5434 5428 5423 5416 5410 5404 5397 5390 5382 5375 5366 5357 5349 5344 5339 5335
5559 5547 5548 5551 5548 5540 5537 5535 5531 5525 5520 5514 5507 5502 5496 5491 5484 5478 5473 5467 5462 5457 5452 5446 5442 5438 5434 5429 5423 5416 5410 5403 5397 5390 5383 5376 5368 5361 5355 5348 5340 5333 5329 5323
5543 5544 5545 5551 5546 5540 5536 5526 5518 5512 5506 5500 5493 5486 5481 5476 5471 5465 5461 5456 5451 5446 5441 5436 5431 5427 5422 5417 5411 5404 5397 5389 5382 5376 5370 5362 5355 5348 5342 5338 5336 5330 5323 5321